CPA830 VHHH-KJFK

Flight info

Callsign CPA830
Flight time N/A
Altitude 29000
Route DALOL V631 ENVAR M750 MIDAI/N0505F310 M750 MUKEP Y891 OVSUN/N0508F300 Y893 IGMIS/N0505F310 Y57 POROT OTR11 AVBET OTR9 EMRON DCT 44N160E/N0492F330 49N170E DCT EYETI DCT CAMBO DCT CUDDA DCT PDN DCT CJAYY/N0489F350 DCT 58N140W DCT YXJ DCT NUBEG Q971 WAINN DCT DURUR DCT 49N100W/N0493F370 DCT GFK DCT GRB DCT TWIGS DCT JHW J106 MAGIO Q476 WLKES PUCKY1
Aircraft B77W/H-SDE1E2E3FGHIJ2J3J4J5M1RWXY/LB1D1

Departure

Time N/A
Airport Hong Kong International Airport (VHHH)

Arrival

Time 2026-05-06 16:37
Airport John F. Kennedy International Airport (KJFK)
Time Latitude Longitude Altitude Speed Heading
2026-05-06 14:19 48.08908 -97.53000 37101 ft 511 kts 119°
2026-05-06 14:19 48.07129 -97.48398 37098 ft 511 kts 119°
2026-05-06 14:19 48.03566 -97.39205 37098 ft 512 kts 119°
2026-05-06 14:20 47.99989 -97.30003 37086 ft 512 kts 119°
2026-05-06 14:20 47.96405 -97.20815 37111 ft 512 kts 120°
2026-05-06 14:21 47.93145 -97.11384 37115 ft 511 kts 114°
2026-05-06 14:21 47.90114 -97.01782 37112 ft 512 kts 114°
2026-05-06 14:22 47.87080 -96.92183 37119 ft 512 kts 114°
2026-05-06 14:22 47.84017 -96.82612 37094 ft 512 kts 115°
2026-05-06 14:23 47.80933 -96.73056 37084 ft 513 kts 115°
2026-05-06 14:23 47.77853 -96.63559 37085 ft 513 kts 115°
2026-05-06 14:24 47.74748 -96.54014 37087 ft 513 kts 115°
2026-05-06 14:24 47.71636 -96.44479 37099 ft 513 kts 115°
2026-05-06 14:25 47.68512 -96.34944 37115 ft 514 kts 115°
2026-05-06 14:25 47.65381 -96.25422 37122 ft 514 kts 115°
2026-05-06 14:26 47.62241 -96.15906 37120 ft 513 kts 116°
2026-05-06 14:26 47.59090 -96.06394 37109 ft 514 kts 116°
2026-05-06 14:27 47.55934 -95.96903 37101 ft 514 kts 116°
2026-05-06 14:27 47.52773 -95.87432 37095 ft 514 kts 116°
2026-05-06 14:28 47.49601 -95.77961 37093 ft 514 kts 116°
2026-05-06 14:28 47.46421 -95.68504 37098 ft 514 kts 116°
2026-05-06 14:29 47.43232 -95.59052 37104 ft 514 kts 116°
2026-05-06 14:29 47.40040 -95.49627 37113 ft 514 kts 116°
2026-05-06 14:30 47.36835 -95.40197 37115 ft 514 kts 116°
2026-05-06 14:30 47.33620 -95.30771 37106 ft 514 kts 117°
2026-05-06 14:31 47.30403 -95.21373 37099 ft 514 kts 117°
2026-05-06 14:31 47.27171 -95.11966 37092 ft 514 kts 117°
2026-05-06 14:32 47.23955 -95.02640 37090 ft 514 kts 117°
2026-05-06 14:32 47.20710 -94.93263 37096 ft 514 kts 117°
2026-05-06 14:33 47.17457 -94.83894 37088 ft 514 kts 117°
2026-05-06 14:33 47.14196 -94.74538 37092 ft 514 kts 117°
2026-05-06 14:34 47.10921 -94.65178 37089 ft 515 kts 118°
2026-05-06 14:34 47.07645 -94.55844 37078 ft 515 kts 118°
2026-05-06 14:35 47.04376 -94.46564 37068 ft 515 kts 118°
2026-05-06 14:35 47.01080 -94.37238 37060 ft 515 kts 118°
2026-05-06 14:36 46.97774 -94.27920 37053 ft 516 kts 118°
2026-05-06 14:36 46.94455 -94.18597 37055 ft 516 kts 118°
2026-05-06 14:37 46.91130 -94.09290 37055 ft 516 kts 118°
2026-05-06 14:37 46.87797 -93.99993 37066 ft 516 kts 118°
2026-05-06 14:38 46.84450 -93.90691 37074 ft 517 kts 119°
2026-05-06 14:38 46.81122 -93.81472 37076 ft 517 kts 119°
2026-05-06 14:39 46.77761 -93.72195 37071 ft 517 kts 119°
2026-05-06 14:39 46.74390 -93.62923 37071 ft 517 kts 119°
2026-05-06 14:40 46.71013 -93.53665 37069 ft 518 kts 119°
2026-05-06 14:40 46.67622 -93.44403 37068 ft 518 kts 119°
2026-05-06 14:41 46.64226 -93.35156 37054 ft 518 kts 120°
2026-05-06 14:41 46.60821 -93.25921 37052 ft 519 kts 120°
2026-05-06 14:42 46.57401 -93.16674 37056 ft 519 kts 120°
2026-05-06 14:42 46.53977 -93.07448 37059 ft 519 kts 120°
2026-05-06 14:43 46.50543 -92.98226 37065 ft 519 kts 120°
2026-05-06 14:43 46.47101 -92.89015 37066 ft 520 kts 120°
2026-05-06 14:44 46.43670 -92.79867 37064 ft 520 kts 120°
2026-05-06 14:45 46.38468 -92.66052 37062 ft 520 kts 120°
2026-05-06 14:45 46.34994 -92.56866 37061 ft 520 kts 120°
2026-05-06 14:46 46.31512 -92.47689 37059 ft 521 kts 121°
2026-05-06 14:46 46.28013 -92.38499 37052 ft 521 kts 121°
2026-05-06 14:47 46.24530 -92.29383 37052 ft 521 kts 121°
2026-05-06 14:47 46.21019 -92.20221 37049 ft 522 kts 121°
2026-05-06 14:48 46.17499 -92.11068 37046 ft 522 kts 121°
2026-05-06 14:48 46.13966 -92.01913 37045 ft 523 kts 121°
2026-05-06 14:49 46.10419 -91.92752 37048 ft 523 kts 121°
2026-05-06 14:49 46.06866 -91.83607 37047 ft 524 kts 122°
2026-05-06 14:50 46.03300 -91.74457 37036 ft 524 kts 122°
2026-05-06 14:50 45.99749 -91.65377 37034 ft 525 kts 122°
2026-05-06 14:51 45.96161 -91.56233 37026 ft 525 kts 122°
2026-05-06 14:51 45.92563 -91.47095 37024 ft 526 kts 122°
2026-05-06 14:52 45.88958 -91.37967 37025 ft 526 kts 122°
2026-05-06 14:52 45.85339 -91.28835 37024 ft 526 kts 122°
2026-05-06 14:53 45.81715 -91.19721 37042 ft 526 kts 122°
2026-05-06 14:53 45.78079 -91.10606 37046 ft 527 kts 123°
2026-05-06 14:54 45.74458 -91.01559 37040 ft 527 kts 123°
2026-05-06 14:54 45.70805 -90.92461 37039 ft 527 kts 123°
2026-05-06 14:55 45.67143 -90.83371 37038 ft 528 kts 123°
2026-05-06 14:55 45.63469 -90.74282 37035 ft 528 kts 123°
2026-05-06 14:56 45.59779 -90.65184 37015 ft 529 kts 123°
2026-05-06 14:56 45.56080 -90.56092 37008 ft 529 kts 123°
2026-05-06 14:57 45.52373 -90.47010 37010 ft 530 kts 124°
2026-05-06 14:57 45.48660 -90.37942 37014 ft 530 kts 124°
2026-05-06 14:58 45.44935 -90.28874 37014 ft 530 kts 124°
2026-05-06 14:58 45.41197 -90.19806 37016 ft 531 kts 124°
2026-05-06 14:59 45.37455 -90.10756 37009 ft 531 kts 124°
2026-05-06 14:59 45.33728 -90.01771 37006 ft 531 kts 124°
2026-05-06 15:00 45.29975 -89.92754 37006 ft 531 kts 124°
2026-05-06 15:00 45.26204 -89.83723 37007 ft 531 kts 125°
2026-05-06 15:01 45.22432 -89.74718 37011 ft 531 kts 125°
2026-05-06 15:01 45.18651 -89.65721 37010 ft 531 kts 125°
2026-05-06 15:02 45.14856 -89.56719 37003 ft 532 kts 125°
2026-05-06 15:02 45.11053 -89.47726 37002 ft 532 kts 125°
2026-05-06 15:03 45.07267 -89.38800 36992 ft 532 kts 126°
2026-05-06 15:03 45.03449 -89.29830 36993 ft 533 kts 126°
2026-05-06 15:04 44.99621 -89.20865 36996 ft 533 kts 126°
2026-05-06 15:04 44.95784 -89.11903 36991 ft 533 kts 126°
2026-05-06 15:05 44.91933 -89.02941 36995 ft 534 kts 126°
2026-05-06 15:05 44.88074 -88.93987 36995 ft 534 kts 126°
2026-05-06 15:06 44.84862 -88.86556 37014 ft 535 kts 126°
2026-05-06 15:06 44.80350 -88.76150 37008 ft 535 kts 127°
2026-05-06 15:07 44.77094 -88.68664 37007 ft 535 kts 127°
2026-05-06 15:07 44.73199 -88.59736 37006 ft 535 kts 127°
2026-05-06 15:08 44.69298 -88.50821 37000 ft 535 kts 127°
2026-05-06 15:08 44.65421 -88.41985 36994 ft 535 kts 127°
2026-05-06 15:09 44.61509 -88.33099 36994 ft 535 kts 127°
2026-05-06 15:09 44.57592 -88.24226 37004 ft 535 kts 127°
2026-05-06 15:10 44.54105 -88.14951 37000 ft 543 kts 116°
2026-05-06 15:10 44.51383 -88.05063 37010 ft 544 kts 115°
2026-05-06 15:11 44.48703 -87.95162 37003 ft 544 kts 115°
2026-05-06 15:11 44.45973 -87.85277 36997 ft 544 kts 116°
2026-05-06 15:12 44.43212 -87.75439 36998 ft 543 kts 116°
2026-05-06 15:12 44.40431 -87.65601 37010 ft 543 kts 116°
2026-05-06 15:13 44.37648 -87.55783 37010 ft 543 kts 116°
2026-05-06 15:13 44.34859 -87.45970 37010 ft 543 kts 116°
2026-05-06 15:14 44.32067 -87.36183 37014 ft 543 kts 117°
2026-05-06 15:14 44.29283 -87.26464 37018 ft 542 kts 117°
2026-05-06 15:15 44.26475 -87.16700 37021 ft 542 kts 117°
2026-05-06 15:15 44.23654 -87.06932 37028 ft 542 kts 117°
2026-05-06 15:16 44.20825 -86.97170 37028 ft 542 kts 117°
2026-05-06 15:16 44.17990 -86.87428 37031 ft 543 kts 117°
2026-05-06 15:17 44.15140 -86.77670 37013 ft 543 kts 117°
2026-05-06 15:17 44.12305 -86.68003 37009 ft 544 kts 117°
2026-05-06 15:18 44.09438 -86.58262 37002 ft 544 kts 117°
2026-05-06 15:18 44.06559 -86.48523 36999 ft 544 kts 117°
2026-05-06 15:19 44.03673 -86.38792 36998 ft 545 kts 118°
2026-05-06 15:19 44.00772 -86.29050 36994 ft 545 kts 118°
2026-05-06 15:20 43.97858 -86.19304 36993 ft 546 kts 118°
2026-05-06 15:20 43.94942 -86.09585 36990 ft 546 kts 118°
2026-05-06 15:21 43.92031 -85.99922 36983 ft 546 kts 118°
2026-05-06 15:21 43.89096 -85.90211 36978 ft 546 kts 118°
2026-05-06 15:22 43.86153 -85.80514 36972 ft 545 kts 118°
2026-05-06 15:22 43.83205 -85.70838 36973 ft 545 kts 118°
2026-05-06 15:23 43.80246 -85.61160 36972 ft 545 kts 118°
2026-05-06 15:23 43.77284 -85.51511 36990 ft 545 kts 118°
2026-05-06 15:24 43.74317 -85.41882 36977 ft 545 kts 118°
2026-05-06 15:24 43.71335 -85.32236 36981 ft 544 kts 118°
2026-05-06 15:25 43.68353 -85.22627 36977 ft 544 kts 118°
2026-05-06 15:25 43.65383 -85.13095 36973 ft 544 kts 119°
2026-05-06 15:26 43.62385 -85.03506 36978 ft 543 kts 119°
2026-05-06 15:26 43.59383 -84.93941 36987 ft 543 kts 119°
2026-05-06 15:27 43.56373 -84.84382 36981 ft 543 kts 119°
2026-05-06 15:27 43.53355 -84.74835 36983 ft 543 kts 119°
2026-05-06 15:28 43.50332 -84.65307 36976 ft 543 kts 119°
2026-05-06 15:28 43.47297 -84.55775 36983 ft 543 kts 119°
2026-05-06 15:29 43.44276 -84.46322 36983 ft 543 kts 119°
2026-05-06 15:29 43.41228 -84.36816 36995 ft 543 kts 119°
2026-05-06 15:30 43.38170 -84.27315 36992 ft 544 kts 120°
2026-05-06 15:30 43.35096 -84.17799 36995 ft 544 kts 120°
2026-05-06 15:31 43.32017 -84.08300 36982 ft 544 kts 120°
2026-05-06 15:31 43.28927 -83.98801 36993 ft 545 kts 120°
2026-05-06 15:32 43.24292 -83.84618 36993 ft 546 kts 120°
2026-05-06 15:32 43.21180 -83.75134 36984 ft 546 kts 120°
2026-05-06 15:33 43.18051 -83.65634 36984 ft 547 kts 120°
2026-05-06 15:33 43.14913 -83.56142 36978 ft 547 kts 120°
2026-05-06 15:34 43.11765 -83.46650 36970 ft 547 kts 120°
2026-05-06 15:34 43.08611 -83.37173 36962 ft 547 kts 120°
2026-05-06 15:35 43.05445 -83.27695 36953 ft 547 kts 121°
2026-05-06 15:35 43.02274 -83.18233 36946 ft 547 kts 121°
2026-05-06 15:36 42.99119 -83.08855 36943 ft 547 kts 121°
2026-05-06 15:36 42.95930 -82.99405 36937 ft 547 kts 121°
2026-05-06 15:37 42.92739 -82.89984 36951 ft 547 kts 121°
2026-05-06 15:37 42.89538 -82.80566 36961 ft 547 kts 121°
2026-05-06 15:38 42.86330 -82.71155 36986 ft 547 kts 121°
2026-05-06 15:38 42.83112 -82.61746 36977 ft 548 kts 121°
2026-05-06 15:39 42.80308 -82.52045 36983 ft 556 kts 111°
2026-05-06 15:39 42.78531 -82.41728 36975 ft 561 kts 107°
2026-05-06 15:40 42.76905 -82.31402 36962 ft 561 kts 107°
2026-05-06 15:40 42.75221 -82.21036 36952 ft 561 kts 107°
2026-05-06 15:41 42.73488 -82.10686 36949 ft 561 kts 108°
2026-05-06 15:41 42.71735 -82.00341 36937 ft 561 kts 108°
2026-05-06 15:42 42.69975 -81.90002 36934 ft 561 kts 108°
2026-05-06 15:42 42.68218 -81.79719 36931 ft 562 kts 108°
2026-05-06 15:43 42.66443 -81.69386 36923 ft 562 kts 108°
2026-05-06 15:43 42.64654 -81.59029 36919 ft 563 kts 108°
2026-05-06 15:44 42.62856 -81.48682 36911 ft 563 kts 108°
2026-05-06 15:44 42.61046 -81.38325 36924 ft 564 kts 108°
2026-05-06 15:45 42.59227 -81.27977 36917 ft 564 kts 109°
2026-05-06 15:45 42.57395 -81.17616 36912 ft 565 kts 109°
2026-05-06 15:46 42.55553 -81.07252 36906 ft 565 kts 109°
2026-05-06 15:46 42.53713 -80.96962 36908 ft 566 kts 109°
2026-05-06 15:47 42.51851 -80.86607 36905 ft 566 kts 109°
2026-05-06 15:47 42.49975 -80.76228 36898 ft 567 kts 109°
2026-05-06 15:48 42.48091 -80.65866 36899 ft 567 kts 109°
2026-05-06 15:48 42.46191 -80.55476 36895 ft 568 kts 109°
2026-05-06 15:49 42.44282 -80.45094 36894 ft 568 kts 109°
2026-05-06 15:49 42.42374 -80.34771 36892 ft 569 kts 109°
2026-05-06 15:50 42.40443 -80.24383 36895 ft 569 kts 109°
2026-05-06 15:50 42.38502 -80.13996 36900 ft 570 kts 109°
2026-05-06 15:51 42.36551 -80.03611 36899 ft 570 kts 109°
2026-05-06 15:51 42.34590 -79.93233 36900 ft 570 kts 110°
2026-05-06 15:52 42.32618 -79.82849 36893 ft 570 kts 110°
2026-05-06 15:52 42.30636 -79.72469 36888 ft 570 kts 110°
2026-05-06 15:53 42.28658 -79.62164 36888 ft 570 kts 110°
2026-05-06 15:53 42.26658 -79.51803 36891 ft 571 kts 110°
2026-05-06 15:54 42.24646 -79.41434 36882 ft 571 kts 110°
2026-05-06 15:54 42.22624 -79.31061 36870 ft 571 kts 110°
2026-05-06 15:55 42.20594 -79.20704 36877 ft 571 kts 110°
2026-05-06 15:55 42.18514 -79.10379 36866 ft 569 kts 113°
2026-05-06 15:56 42.16035 -79.00286 36871 ft 567 kts 115°
2026-05-06 15:56 42.13459 -78.90244 36868 ft 567 kts 115°
2026-05-06 15:57 42.10898 -78.80194 36849 ft 567 kts 115°
2026-05-06 15:57 42.08373 -78.70207 36842 ft 567 kts 115°
2026-05-06 15:58 42.05826 -78.60143 36844 ft 567 kts 115°
2026-05-06 15:58 42.03267 -78.50088 36826 ft 568 kts 115°
2026-05-06 15:59 42.00702 -78.40066 36835 ft 568 kts 115°
2026-05-06 15:59 41.98117 -78.30011 36854 ft 568 kts 114°
2026-05-06 16:00 41.95527 -78.19974 36843 ft 569 kts 115°
2026-05-06 16:00 41.92940 -78.09990 36847 ft 570 kts 115°
2026-05-06 16:01 41.90327 -77.99940 36836 ft 570 kts 115°
2026-05-06 16:01 41.87705 -77.89902 36828 ft 570 kts 115°
2026-05-06 16:02 41.85075 -77.79863 36812 ft 570 kts 115°
2026-05-06 16:02 41.82450 -77.69838 36803 ft 569 kts 115°
2026-05-06 16:03 41.79822 -77.59843 36803 ft 568 kts 115°
2026-05-06 16:03 41.77201 -77.49927 36804 ft 569 kts 115°
2026-05-06 16:04 41.74525 -77.39929 36795 ft 570 kts 115°
2026-05-06 16:04 41.71843 -77.29943 36782 ft 570 kts 115°
2026-05-06 16:05 41.69161 -77.19969 36779 ft 570 kts 115°
2026-05-06 16:05 41.66471 -77.10016 36772 ft 568 kts 115°
2026-05-06 16:06 41.64235 -77.01768 36772 ft 566 kts 115°
2026-05-06 16:06 41.61112 -76.90283 36784 ft 565 kts 115°
2026-05-06 16:07 41.58862 -76.82039 36786 ft 564 kts 115°
2026-05-06 16:07 41.56183 -76.72261 36778 ft 563 kts 115°
2026-05-06 16:08 41.53487 -76.62456 36790 ft 562 kts 115°
2026-05-06 16:08 41.50783 -76.52658 36773 ft 562 kts 115°
2026-05-06 16:09 41.48081 -76.42881 36785 ft 560 kts 115°
2026-05-06 16:09 41.45915 -76.35064 36792 ft 560 kts 115°
2026-05-06 16:10 41.43284 -76.25607 36792 ft 559 kts 115°
2026-05-06 16:10 41.41819 -76.20357 36793 ft 559 kts 115°
2026-05-06 16:11 41.40111 -76.14254 36772 ft 560 kts 115°
2026-05-06 16:11 41.38742 -76.09377 36058 ft 569 kts 115°
2026-05-06 16:11 41.37352 -76.04436 35373 ft 568 kts 115°
2026-05-06 16:12 41.35968 -75.99511 34572 ft 569 kts 115°
2026-05-06 16:12 41.34578 -75.94578 33720 ft 569 kts 115°
2026-05-06 16:12 41.34129 -75.92984 33409 ft 570 kts 115°
2026-05-06 16:12 41.34083 -75.92822 33379 ft 570 kts 115°
2026-05-06 16:13 41.32842 -75.88426 32528 ft 567 kts 115°
2026-05-06 16:13 41.31486 -75.83625 31615 ft 554 kts 115°
2026-05-06 16:13 41.30147 -75.78888 30713 ft 541 kts 115°
2026-05-06 16:13 41.28830 -75.74252 29781 ft 530 kts 116°
2026-05-06 16:14 41.27521 -75.69656 29012 ft 516 kts 116°
2026-05-06 16:14 41.26230 -75.65371 28447 ft 498 kts 118°
2026-05-06 16:14 41.24855 -75.61222 27879 ft 487 kts 120°
2026-05-06 16:14 41.23436 -75.57119 27343 ft 491 kts 120°
2026-05-06 16:15 41.21988 -75.52955 26810 ft 504 kts 120°
2026-05-06 16:15 41.20515 -75.48669 26235 ft 511 kts 119°
2026-05-06 16:15 41.19062 -75.44365 25632 ft 509 kts 118°
2026-05-06 16:15 41.17632 -75.40091 25034 ft 504 kts 118°
2026-05-06 16:16 41.16211 -75.35856 24451 ft 500 kts 118°
2026-05-06 16:16 41.14796 -75.31664 23870 ft 496 kts 118°
2026-05-06 16:16 41.13389 -75.27499 23274 ft 492 kts 118°
2026-05-06 16:16 41.11995 -75.23374 22596 ft 488 kts 118°
2026-05-06 16:17 41.10612 -75.19288 22009 ft 483 kts 118°
2026-05-06 16:17 41.09240 -75.15236 21433 ft 479 kts 118°
2026-05-06 16:17 41.07881 -75.11227 20839 ft 474 kts 119°
2026-05-06 16:17 41.06535 -75.07268 20281 ft 469 kts 119°
2026-05-06 16:18 41.05199 -75.03343 19729 ft 465 kts 119°
2026-05-06 16:18 41.03869 -74.99443 19154 ft 462 kts 119°
2026-05-06 16:18 41.02661 -74.95903 18663 ft 459 kts 119°
2026-05-06 16:18 41.01349 -74.92065 18090 ft 457 kts 119°
2026-05-06 16:19 41.00046 -74.88245 17453 ft 454 kts 118°
2026-05-06 16:19 40.99044 -74.84279 16839 ft 455 kts 106°
2026-05-06 16:19 40.98534 -74.80163 16340 ft 452 kts 102°
2026-05-06 16:19 40.98131 -74.76059 15774 ft 448 kts 101°
2026-05-06 16:20 40.97742 -74.71991 15246 ft 444 kts 102°
2026-05-06 16:20 40.97333 -74.67956 14716 ft 440 kts 103°
2026-05-06 16:20 40.96898 -74.63955 14166 ft 437 kts 103°
2026-05-06 16:20 40.96448 -74.60013 13689 ft 432 kts 104°
2026-05-06 16:21 40.95990 -74.56106 13139 ft 428 kts 105°
2026-05-06 16:21 40.95540 -74.52296 12577 ft 409 kts 105°
2026-05-06 16:21 40.95110 -74.48663 12066 ft 392 kts 105°
2026-05-06 16:21 40.94697 -74.45169 11566 ft 377 kts 105°
2026-05-06 16:22 40.94293 -74.41803 11107 ft 367 kts 106°
2026-05-06 16:22 40.93889 -74.38486 10950 ft 361 kts 105°
2026-05-06 16:22 40.93495 -74.35236 10789 ft 353 kts 106°
2026-05-06 16:22 40.93112 -74.32080 10622 ft 343 kts 106°
2026-05-06 16:23 40.92754 -74.29092 10485 ft 323 kts 107°
2026-05-06 16:23 40.92414 -74.26249 10314 ft 303 kts 108°
2026-05-06 16:23 40.92089 -74.23556 10196 ft 283 kts 108°
2026-05-06 16:23 40.91768 -74.20986 10120 ft 294 kts 108°
2026-05-06 16:24 40.91423 -74.18256 10023 ft 306 kts 108°
2026-05-06 16:24 40.91081 -74.15470 9681 ft 306 kts 107°
2026-05-06 16:24 40.90731 -74.12738 9323 ft 294 kts 112°
2026-05-06 16:24 40.89980 -74.10440 9013 ft 270 kts 133°
2026-05-06 16:25 40.88951 -74.08386 8725 ft 267 kts 134°
2026-05-06 16:25 40.87921 -74.06336 8429 ft 270 kts 133°
2026-05-06 16:25 40.86874 -74.04242 8139 ft 276 kts 133°
2026-05-06 16:25 40.85816 -74.02115 7842 ft 279 kts 133°
2026-05-06 16:26 40.84747 -73.99974 7511 ft 278 kts 131°
2026-05-06 16:26 40.84007 -73.97604 7171 ft 289 kts 105°
2026-05-06 16:26 40.84127 -73.94918 6873 ft 300 kts 77°
2026-05-06 16:26 40.85125 -73.92516 6629 ft 301 kts 47°
2026-05-06 16:27 40.86703 -73.90750 6395 ft 296 kts 34°
2026-05-06 16:27 40.88393 -73.89143 6222 ft 305 kts 34°
2026-05-06 16:27 40.90210 -73.87451 6294 ft 340 kts 33°
2026-05-06 16:27 40.92178 -73.85437 6349 ft 376 kts 45°
2026-05-06 16:28 40.93751 -73.82584 6339 ft 388 kts 64°
2026-05-06 16:28 40.94729 -73.79398 6258 ft 361 kts 81°
2026-05-06 16:28 40.94889 -73.76208 6036 ft 339 kts 104°
2026-05-06 16:28 40.94249 -73.73333 5953 ft 316 kts 119°
2026-05-06 16:29 40.93397 -73.70747 5623 ft 298 kts 122°
2026-05-06 16:29 40.92538 -73.68344 5211 ft 280 kts 127°
2026-05-06 16:29 40.91354 -73.66506 4806 ft 248 kts 155°
2026-05-06 16:29 40.89879 -73.65594 4438 ft 229 kts 169°
2026-05-06 16:30 40.88340 -73.64971 4096 ft 232 kts 173°
2026-05-06 16:30 40.87300 -73.64658 3804 ft 229 kts 175°
2026-05-06 16:30 40.85242 -73.64114 3282 ft 225 kts 178°
2026-05-06 16:30 40.83719 -73.64000 3008 ft 214 kts 188°
2026-05-06 16:31 40.82356 -73.64334 2969 ft 183 kts 207°
2026-05-06 16:31 40.81247 -73.64944 2997 ft 166 kts 209°
2026-05-06 16:31 40.80243 -73.65576 2948 ft 150 kts 211°
2026-05-06 16:31 40.79357 -73.66179 2975 ft 139 kts 213°
2026-05-06 16:32 40.78505 -73.66781 2998 ft 141 kts 213°
2026-05-06 16:32 40.77635 -73.67398 2897 ft 139 kts 213°
2026-05-06 16:32 40.76828 -73.67968 2750 ft 125 kts 213°
2026-05-06 16:32 40.76082 -73.68500 2626 ft 123 kts 213°
2026-05-06 16:33 40.75335 -73.69032 2473 ft 121 kts 213°
2026-05-06 16:33 40.74594 -73.69560 2304 ft 120 kts 213°
2026-05-06 16:33 40.73858 -73.70086 2140 ft 121 kts 213°
2026-05-06 16:34 40.72367 -73.71144 1826 ft 122 kts 212°
2026-05-06 16:34 40.71609 -73.71683 1675 ft 124 kts 211°
2026-05-06 16:34 40.70853 -73.72222 1493 ft 127 kts 210°
2026-05-06 16:34 40.70083 -73.72769 1327 ft 126 kts 208°
2026-05-06 16:35 40.69392 -73.73259 1189 ft 128 kts 208°
2026-05-06 16:35 40.68581 -73.73836 1001 ft 127 kts 209°
2026-05-06 16:35 40.67792 -73.74380 828 ft 129 kts 205°
2026-05-06 16:35 40.67015 -73.74850 683 ft 121 kts 205°
2026-05-06 16:36 40.66260 -73.75392 549 ft 127 kts 208°
2026-05-06 16:36 40.65493 -73.75988 350 ft 130 kts 209°
2026-05-06 16:36 40.64734 -73.76583 169 ft 123 kts 208°
2026-05-06 16:36 40.64023 -73.77138 26 ft 113 kts 209°
2026-05-06 16:37 40.63442 -73.77590 29 ft 79 kts 210°
2026-05-06 16:37 40.63058 -73.77891 27 ft 58 kts 210°
2026-05-06 16:37 40.62766 -73.78117 29 ft 32 kts 211°
2026-05-06 16:37 40.62697 -73.78173 27 ft 6 kts 211°
2026-05-06 16:38 40.62654 -73.78225 27 ft 9 kts 236°
2026-05-06 16:38 40.62647 -73.78305 29 ft 10 kts 286°
2026-05-06 16:38 40.62713 -73.78339 24 ft 12 kts 12°
2026-05-06 16:38 40.62789 -73.78290 25 ft 12 kts 30°
2026-05-06 16:39 40.62865 -73.78230 23 ft 13 kts 31°
2026-05-06 16:39 40.62947 -73.78164 26 ft 16 kts 30°
2026-05-06 16:39 40.63069 -73.78072 25 ft 25 kts 33°
2026-05-06 16:39 40.63238 -73.78006 25 ft 24 kts 11°
2026-05-06 16:40 40.63282 -73.77988 23 ft 0 kts 19°
2026-05-06 16:44 40.63285 -73.77987 23 ft 1 kts 18°
2026-05-06 16:45 40.63316 -73.77973 24 ft 8 kts 21°
2026-05-06 16:45 40.63365 -73.77952 25 ft 5 kts 349°
2026-05-06 16:45 40.63409 -73.78034 25 ft 16 kts 296°
2026-05-06 16:45 40.63464 -73.78164 23 ft 16 kts 301°
2026-05-06 16:46 40.63521 -73.78291 26 ft 17 kts 301°
2026-05-06 16:46 40.63583 -73.78428 24 ft 18 kts 301°
2026-05-06 16:46 40.63652 -73.78578 24 ft 19 kts 301°
2026-05-06 16:46 40.63722 -73.78729 23 ft 19 kts 301°
2026-05-06 16:47 40.63793 -73.78885 22 ft 20 kts 301°
2026-05-06 16:47 40.63864 -73.79042 22 ft 20 kts 301°
2026-05-06 16:47 40.63934 -73.79197 24 ft 20 kts 301°
2026-05-06 16:47 40.64000 -73.79344 23 ft 16 kts 301°
2026-05-06 16:48 40.64059 -73.79458 25 ft 15 kts 314°
2026-05-06 16:48 40.64156 -73.79506 21 ft 15 kts 358°
2026-05-06 16:48 40.64264 -73.79500 21 ft 16 kts
2026-05-06 16:48 40.64374 -73.79492 21 ft 16 kts
2026-05-06 16:49 40.64483 -73.79501 20 ft 15 kts 356°
2026-05-06 16:49 40.64589 -73.79526 23 ft 16 kts 339°
2026-05-06 16:49 40.64673 -73.79590 20 ft 9 kts 326°
2026-05-06 16:49 40.64734 -73.79599 20 ft 9 kts 23°
2026-05-06 16:50 40.64776 -73.79541 23 ft 9 kts 56°
2026-05-06 16:50 40.64812 -73.79465 22 ft 13 kts 59°
2026-05-06 16:50 40.64870 -73.79332 21 ft 16 kts 61°
2026-05-06 16:50 40.64897 -73.79266 21 ft 13 kts 61°
2026-05-06 16:51 40.64953 -73.79133 24 ft 11 kts 61°
2026-05-06 16:51 40.64990 -73.79046 23 ft 10 kts 60°
2026-05-06 16:51 40.64971 -73.78976 22 ft 8 kts 158°
2026-05-06 16:51 40.64948 -73.78980 21 ft 1 kts 195°
2026-05-06 16:52 40.64941 -73.78983 22 ft 0 kts 195°
2026-05-06 16:52 40.64939 -73.78984 21 ft 0 kts 196°